Time,TemperatureF,DewpointF,PressureIn,WindDirection,WindDirectionDegrees,WindSpeedMPH,WindSpeedGustMPH,Humidity,HourlyPrecipIn,Conditions,Clouds,dailyrainin,SoftwareType,DateUTC
2013-03-04 00:00:00,64.8,16.1,25.37,SSW,202,10.7,10.7,15,0.00,,---,0.00,VWS V14.01,2013-03-04 06:00:00,
2013-03-04 00:05:00,63.3,16.4,25.37,SW,225,7.6,8.7,16,0.00,,---,0.00,VWS V14.01,2013-03-04 06:05:00,
2013-03-04 00:10:00,62.8,15.9,25.37,SW,225,8.7,8.7,16,0.00,,---,0.00,VWS V14.01,2013-03-04 06:10:00,
2013-03-04 00:15:00,61.9,15.2,25.37,WSW,248,8.1,8.7,16,0.00,,---,0.00,VWS V14.01,2013-03-04 06:15:00,
2013-03-04 00:20:00,60.4,15.4,25.37,SW,225,7.6,8.1,17,0.00,,---,0.00,VWS V14.01,2013-03-04 06:20:00,
2013-03-04 00:25:00,59.7,14.9,25.37,SW,225,7.6,8.1,17,0.00,,---,0.00,VWS V14.01,2013-03-04 06:25:00,
2013-03-04 00:30:00,58.8,14.1,25.37,SW,225,8.1,8.1,17,0.00,,---,0.00,VWS V14.01,2013-03-04 06:30:00,
2013-03-04 00:35:00,58.5,13.8,25.37,SW,225,7.8,7.8,17,0.00,,---,0.00,VWS V14.01,2013-03-04 06:35:00,
2013-03-04 00:40:00,58.5,13.8,25.37,SW,225,8.1,8.5,17,0.00,,---,0.00,VWS V14.01,2013-03-04 06:40:00,
2013-03-04 00:45:00,58.3,13.7,25.37,SW,225,6.5,7.4,17,0.00,,---,0.00,VWS V14.01,2013-03-04 06:45:00,
2013-03-04 00:50:00,58.5,13.8,25.37,SW,225,6.3,6.5,17,0.00,,---,0.00,VWS V14.01,2013-03-04 06:50:00,
2013-03-04 00:55:00,58.8,14.1,25.37,SSW,202,5.4,6.5,17,0.00,,---,0.00,VWS V14.01,2013-03-04 06:55:00,
2013-03-04 01:00:00,59.0,14.3,25.37,SSW,202,6.3,6.7,17,0.00,,---,0.00,VWS V14.01,2013-03-04 07:00:00,
2013-03-04 01:05:00,59.2,14.4,25.37,SW,225,5.4,6.0,17,0.00,,---,0.00,VWS V14.01,2013-03-04 07:05:00,
2013-03-04 01:10:00,59.4,14.6,25.37,SSW,202,4.3,5.6,17,0.00,,---,0.00,VWS V14.01,2013-03-04 07:10:00,
2013-03-04 01:15:00,59.5,14.7,25.37,SSW,202,3.8,4.0,17,0.00,,---,0.00,VWS V14.01,2013-03-04 07:15:00,
2013-03-04 01:20:00,59.4,14.6,25.37,SW,225,3.8,4.3,17,0.00,,---,0.00,VWS V14.01,2013-03-04 07:20:00,
2013-03-04 01:25:00,58.8,14.1,25.37,SSW,202,3.1,3.4,17,0.00,,---,0.00,VWS V14.01,2013-03-04 07:25:00,
2013-03-04 01:30:00,57.9,13.4,25.37,SSW,202,1.1,1.6,17,0.00,,---,0.00,VWS V14.01,2013-03-04 07:30:00,
2013-03-04 01:35:00,57.2,12.8,25.37,WSW,248,0.0,0.0,17,0.00,,---,0.00,VWS V14.01,2013-03-04 07:35:00,
2013-03-04 01:40:00,57.4,12.9,25.37,SSW,202,1.1,1.6,17,0.00,,---,0.00,VWS V14.01,2013-03-04 07:40:00,
2013-03-04 01:45:00,57.6,8.7,25.37,SSW,202,2.9,3.1,14,0.00,,---,0.00,VWS V14.01,2013-03-04 07:45:00,
2013-03-04 01:50:00,58.1,13.5,25.37,SW,225,4.3,6.0,17,0.00,,---,0.00,VWS V14.01,2013-03-04 07:50:00,
2013-03-04 01:55:00,57.7,13.2,25.37,SW,225,5.6,6.0,17,0.00,,---,0.00,VWS V14.01,2013-03-04 07:55:00,
2013-03-04 02:00:00,57.6,13.1,25.37,SW,225,4.7,4.7,17,0.00,,---,0.00,VWS V14.01,2013-03-04 08:00:00,
2013-03-04 02:05:00,58.1,13.5,25.37,SW,225,7.6,7.6,17,0.00,,---,0.00,VWS V14.01,2013-03-04 08:05:00,
2013-03-04 02:10:00,58.1,13.5,25.37,SW,225,4.9,6.0,17,0.00,,---,0.00,VWS V14.01,2013-03-04 08:10:00,
2013-03-04 02:15:00,58.3,13.7,25.37,SW,225,6.0,6.0,17,0.00,,---,0.00,VWS V14.01,2013-03-04 08:15:00,
2013-03-04 02:20:00,58.1,13.5,25.37,SW,225,4.9,5.4,17,0.00,,---,0.00,VWS V14.01,2013-03-04 08:20:00,
2013-03-04 02:25:00,57.7,13.2,25.37,SSW,202,3.8,4.3,17,0.00,,---,0.00,VWS V14.01,2013-03-04 08:25:00,
2013-03-04 02:30:00,57.6,13.1,25.34,SW,225,4.5,5.6,17,0.00,,---,0.00,VWS V14.01,2013-03-04 08:30:00,
2013-03-04 02:35:00,57.6,13.1,25.34,SW,225,6.5,6.5,17,0.00,,---,0.00,VWS V14.01,2013-03-04 08:35:00,
2013-03-04 02:40:00,57.6,13.1,25.34,SW,225,7.2,7.2,17,0.00,,---,0.00,VWS V14.01,2013-03-04 08:40:00,
2013-03-04 02:45:00,57.4,12.9,25.34,SSW,202,7.8,7.8,17,0.00,,---,0.00,VWS V14.01,2013-03-04 08:45:00,
2013-03-04 02:50:00,57.7,13.2,25.34,SSW,202,7.4,8.5,17,0.00,,---,0.00,VWS V14.01,2013-03-04 08:50:00,
2013-03-04 02:55:00,57.0,12.7,25.34,SSW,202,4.9,6.5,17,0.00,,---,0.00,VWS V14.01,2013-03-04 08:55:00,
2013-03-04 03:00:00,57.4,12.9,25.34,SSW,202,7.4,7.8,17,0.00,,---,0.00,VWS V14.01,2013-03-04 09:00:00,
2013-03-04 03:05:00,57.7,13.2,25.34,SW,225,6.9,6.9,17,0.00,,---,0.00,VWS V14.01,2013-03-04 09:05:00,
2013-03-04 03:10:00,57.6,13.1,25.34,SSW,202,7.8,7.8,17,0.00,,---,0.00,VWS V14.01,2013-03-04 09:10:00,
2013-03-04 03:15:00,57.6,13.1,25.34,SSW,202,5.4,6.5,17,0.00,,---,0.00,VWS V14.01,2013-03-04 09:15:00,
2013-03-04 03:20:00,57.7,13.2,25.34,SSW,202,5.6,6.5,17,0.00,,---,0.00,VWS V14.01,2013-03-04 09:20:00,
2013-03-04 03:25:00,57.2,12.8,25.34,South,180,7.8,7.8,17,0.00,,---,0.00,VWS V14.01,2013-03-04 09:25:00,
2013-03-04 03:30:00,57.7,13.2,25.34,South,180,3.8,5.8,17,0.00,,---,0.00,VWS V14.01,2013-03-04 09:30:00,
2013-03-04 03:35:00,57.9,13.4,25.34,SSW,202,4.3,4.9,17,0.00,,---,0.00,VWS V14.01,2013-03-04 09:35:00,
2013-03-04 03:40:00,57.9,13.4,25.34,SSE,158,3.8,3.8,17,0.00,,---,0.00,VWS V14.01,2013-03-04 09:40:00,
2013-03-04 03:45:00,58.3,13.7,25.34,SSW,202,4.3,5.4,17,0.00,,---,0.00,VWS V14.01,2013-03-04 09:45:00,
2013-03-04 03:50:00,58.5,13.8,25.34,SSW,202,6.0,7.2,17,0.00,,---,0.00,VWS V14.01,2013-03-04 09:50:00,
2013-03-04 03:55:00,58.8,14.1,25.34,SSW,202,6.0,6.0,17,0.00,,---,0.00,VWS V14.01,2013-03-04 09:55:00,
2013-03-04 04:00:00,58.6,14.0,25.31,South,180,5.6,6.3,17,0.00,,---,0.00,VWS V14.01,2013-03-04 10:00:00,
2013-03-04 04:05:00,58.6,14.0,25.31,South,180,4.9,5.8,17,0.00,,---,0.00,VWS V14.01,2013-03-04 10:05:00,
2013-03-04 04:10:00,58.3,13.7,25.31,SSW,202,4.3,4.9,17,0.00,,---,0.00,VWS V14.01,2013-03-04 10:10:00,
2013-03-04 04:15:00,59.4,14.6,25.31,South,180,5.6,6.7,17,0.00,,---,0.00,VWS V14.01,2013-03-04 10:15:00,
2013-03-04 04:20:00,59.5,14.7,25.31,SSW,202,6.5,6.5,17,0.00,,---,0.00,VWS V14.01,2013-03-04 10:20:00,
2013-03-04 04:25:00,59.4,14.6,25.31,South,180,6.0,6.0,17,0.00,,---,0.00,VWS V14.01,2013-03-04 10:25:00,
2013-03-04 04:30:00,59.5,14.7,25.31,SSW,202,5.6,7.6,17,0.00,,---,0.00,VWS V14.01,2013-03-04 10:30:00,
2013-03-04 04:35:00,59.4,14.6,25.31,SSW,202,5.4,5.4,17,0.00,,---,0.00,VWS V14.01,2013-03-04 10:35:00,
2013-03-04 04:40:00,58.8,14.1,25.31,SSW,202,5.6,5.6,17,0.00,,---,0.00,VWS V14.01,2013-03-04 10:40:00,
2013-03-04 04:45:00,59.2,14.4,25.31,SW,225,5.8,8.5,17,0.00,,---,0.00,VWS V14.01,2013-03-04 10:45:00,
2013-03-04 04:50:00,59.2,14.4,25.31,SSW,202,5.4,6.0,17,0.00,,---,0.00,VWS V14.01,2013-03-04 10:50:00,
2013-03-04 04:55:00,58.6,14.0,25.31,SW,225,10.5,10.5,17,0.00,,---,0.00,VWS V14.01,2013-03-04 10:55:00,
2013-03-04 05:00:00,59.2,14.4,25.31,WSW,248,7.4,7.4,17,0.00,,---,0.00,VWS V14.01,2013-03-04 11:00:00,
2013-03-04 05:05:00,59.4,14.6,25.31,SW,225,6.9,6.9,17,0.00,,---,0.00,VWS V14.01,2013-03-04 11:05:00,
2013-03-04 05:10:00,58.8,14.1,25.31,SW,225,6.0,6.7,17,0.00,,---,0.00,VWS V14.01,2013-03-04 11:10:00,
2013-03-04 05:15:00,59.0,14.3,25.31,WSW,248,7.4,7.8,17,0.00,,---,0.00,VWS V14.01,2013-03-04 11:15:00,
2013-03-04 05:20:00,59.5,14.7,25.31,SW,225,5.6,7.4,17,0.00,,---,0.00,VWS V14.01,2013-03-04 11:20:00,
2013-03-04 05:25:00,60.1,15.1,25.31,SW,225,7.6,10.7,17,0.00,,---,0.00,VWS V14.01,2013-03-04 11:25:00,
2013-03-04 05:30:00,61.5,14.9,25.31,WSW,248,18.1,19.7,16,0.00,,---,0.00,VWS V14.01,2013-03-04 11:30:00,
2013-03-04 05:35:00,64.2,17.1,25.31,WSW,248,12.5,17.7,16,0.00,,---,0.00,VWS V14.01,2013-03-04 11:35:00,
2013-03-04 05:40:00,64.9,16.2,25.31,WSW,248,23.3,25.7,15,0.00,,---,0.00,VWS V14.01,2013-03-04 11:40:00,
2013-03-04 05:45:00,64.8,16.1,25.31,SW,225,11.9,22.6,15,0.00,,---,0.00,VWS V14.01,2013-03-04 11:45:00,
2013-03-04 05:50:00,64.2,17.1,25.31,WSW,248,15.4,17.9,16,0.00,,---,0.00,VWS V14.01,2013-03-04 11:50:00,
2013-03-04 05:55:00,64.2,17.1,25.31,SW,225,12.1,13.0,16,0.00,,---,0.00,VWS V14.01,2013-03-04 11:55:00,
2013-03-04 06:00:00,64.0,17.0,25.34,SW,225,13.2,15.2,16,0.00,,---,0.00,VWS V14.01,2013-03-04 12:00:00,
2013-03-04 06:05:00,63.9,16.8,25.34,SW,225,14.1,14.1,16,0.00,,---,0.00,VWS V14.01,2013-03-04 12:05:00,
2013-03-04 06:10:00,63.5,16.5,25.34,SW,225,8.5,8.7,16,0.00,,---,0.00,VWS V14.01,2013-03-04 12:10:00,
2013-03-04 06:15:00,63.1,16.2,25.34,West,270,11.9,14.8,16,0.00,,---,0.00,VWS V14.01,2013-03-04 12:15:00,
2013-03-04 06:20:00,62.8,15.9,25.34,WSW,248,10.3,11.4,16,0.00,,---,0.00,VWS V14.01,2013-03-04 12:20:00,
2013-03-04 06:25:00,62.4,15.7,25.34,WSW,248,8.7,15.4,16,0.00,,---,0.00,VWS V14.01,2013-03-04 12:25:00,
2013-03-04 06:30:00,62.6,15.8,25.34,West,270,10.5,13.4,16,0.00,,---,0.00,VWS V14.01,2013-03-04 12:30:00,
2013-03-04 06:35:00,61.9,15.2,25.34,West,270,12.5,12.5,16,0.00,,---,0.00,VWS V14.01,2013-03-04 12:35:00,
2013-03-04 06:40:00,61.0,14.5,25.34,West,270,10.1,10.7,16,0.00,,---,0.00,VWS V14.01,2013-03-04 12:40:00,
2013-03-04 06:45:00,61.0,14.5,25.34,West,270,7.8,10.7,16,0.00,,---,0.00,VWS V14.01,2013-03-04 12:45:00,
2013-03-04 06:50:00,60.6,15.6,25.34,West,270,11.0,15.7,17,0.00,,---,0.00,VWS V14.01,2013-03-04 12:50:00,
2013-03-04 06:55:00,60.3,15.3,25.34,West,270,6.9,12.1,17,0.00,,---,0.00,VWS V14.01,2013-03-04 12:55:00,
2013-03-04 07:00:00,59.4,14.6,25.34,West,270,7.8,9.4,17,0.00,,---,0.00,VWS V14.01,2013-03-04 13:00:00,
2013-03-04 07:05:00,58.3,13.7,25.34,West,270,5.6,8.7,17,0.00,,---,0.00,VWS V14.01,2013-03-04 13:05:00,
2013-03-04 07:10:00,57.9,13.4,25.34,West,270,8.7,10.3,17,0.00,,---,0.00,VWS V14.01,2013-03-04 13:10:00,
2013-03-04 07:15:00,57.0,12.7,25.37,West,270,6.5,6.5,17,0.00,,---,0.00,VWS V14.01,2013-03-04 13:15:00,
2013-03-04 07:20:00,56.5,12.2,25.37,West,270,8.7,8.7,17,0.00,,---,0.00,VWS V14.01,2013-03-04 13:20:00,
2013-03-04 07:25:00,56.8,12.5,25.37,WSW,248,7.8,7.8,17,0.00,,---,0.00,VWS V14.01,2013-03-04 13:25:00,
2013-03-04 07:30:00,57.2,12.8,25.37,SW,225,7.8,10.3,17,0.00,,---,0.00,VWS V14.01,2013-03-04 13:30:00,
2013-03-04 07:35:00,57.6,13.1,25.37,SW,225,7.2,7.8,17,0.00,,---,0.00,VWS V14.01,2013-03-04 13:35:00,
2013-03-04 07:40:00,57.4,12.9,25.37,SW,225,4.9,4.9,17,0.00,,---,0.00,VWS V14.01,2013-03-04 13:40:00,
2013-03-04 07:45:00,57.9,13.4,25.34,SSW,202,3.1,3.1,17,0.00,,---,0.00,VWS V14.01,2013-03-04 13:45:00,
2013-03-04 07:50:00,58.3,13.7,25.34,SSW,202,3.6,4.0,17,0.00,,---,0.00,VWS V14.01,2013-03-04 13:50:00,
2013-03-04 07:55:00,58.5,13.8,25.34,SW,225,5.4,5.4,17,0.00,,---,0.00,VWS V14.01,2013-03-04 13:55:00,
2013-03-04 08:00:00,58.3,13.7,25.37,SW,225,4.3,6.3,17,0.00,,---,0.00,VWS V14.01,2013-03-04 14:00:00,
2013-03-04 08:05:00,58.5,13.8,25.37,SW,225,5.8,5.8,17,0.00,,---,0.00,VWS V14.01,2013-03-04 14:05:00,
2013-03-04 08:10:00,58.8,14.1,25.37,SW,225,5.4,8.1,17,0.00,,---,0.00,VWS V14.01,2013-03-04 14:10:00,
2013-03-04 08:15:00,59.0,14.3,25.37,SSW,202,2.7,5.8,17,0.00,,---,0.00,VWS V14.01,2013-03-04 14:15:00,
2013-03-04 08:20:00,60.3,15.3,25.37,SW,225,4.3,4.3,17,0.00,,---,0.00,VWS V14.01,2013-03-04 14:20:00,
2013-03-04 08:25:00,61.3,14.8,25.37,SW,225,10.5,10.5,16,0.00,,---,0.00,VWS V14.01,2013-03-04 14:25:00,
2013-03-04 08:30:00,62.2,15.5,25.37,SW,225,9.6,10.1,16,0.00,,---,0.00,VWS V14.01,2013-03-04 14:30:00,
2013-03-04 08:35:00,63.7,16.7,25.37,SSW,202,4.9,7.4,16,0.00,,---,0.00,VWS V14.01,2013-03-04 14:35:00,
2013-03-04 08:40:00,64.9,16.2,25.37,SW,225,5.4,5.8,15,0.00,,---,0.00,VWS V14.01,2013-03-04 14:40:00,
2013-03-04 08:45:00,65.5,16.6,25.37,SSW,202,4.9,5.6,15,0.00,,---,0.00,VWS V14.01,2013-03-04 14:45:00,
2013-03-04 08:50:00,66.6,17.5,25.37,SW,225,6.0,6.5,15,0.00,,---,0.00,VWS V14.01,2013-03-04 14:50:00,
2013-03-04 08:55:00,67.6,18.4,25.37,SW,225,6.0,7.4,15,0.00,,---,0.00,VWS V14.01,2013-03-04 14:55:00,
2013-03-04 09:00:00,68.0,18.7,25.34,SW,225,12.8,12.8,15,0.00,,---,0.00,VWS V14.01,2013-03-04 15:00:00,
2013-03-04 09:05:00,68.5,19.1,25.34,SSW,202,7.4,10.7,15,0.00,,---,0.00,VWS V14.01,2013-03-04 15:05:00,
2013-03-04 09:10:00,69.6,20.0,25.34,SW,225,7.8,12.8,15,0.00,,---,0.00,VWS V14.01,2013-03-04 15:10:00,
2013-03-04 09:15:00,69.3,19.7,25.37,SSW,202,15.4,15.4,15,0.00,,---,0.00,VWS V14.01,2013-03-04 15:15:00,
2013-03-04 09:20:00,66.9,17.8,25.37,SW,225,11.4,11.4,15,0.00,,---,0.00,VWS V14.01,2013-03-04 15:20:00,
2013-03-04 09:25:00,66.2,17.2,25.37,SW,225,18.8,18.8,15,0.00,,---,0.00,VWS V14.01,2013-03-04 15:25:00,
2013-03-04 09:30:00,66.2,17.2,25.34,SW,225,12.3,15.2,15,0.00,,---,0.00,VWS V14.01,2013-03-04 15:30:00,
2013-03-04 09:35:00,66.4,17.4,25.34,SW,225,15.2,17.5,15,0.00,,---,0.00,VWS V14.01,2013-03-04 15:35:00,
2013-03-04 09:40:00,66.4,17.4,25.34,SW,225,14.8,14.8,15,0.00,,---,0.00,VWS V14.01,2013-03-04 15:40:00,
2013-03-04 09:45:00,66.6,17.5,25.37,WSW,248,17.5,19.5,15,0.00,,---,0.00,VWS V14.01,2013-03-04 15:45:00,
2013-03-04 09:50:00,66.4,17.4,25.37,SW,225,20.8,20.8,15,0.00,,---,0.00,VWS V14.01,2013-03-04 15:50:00,
2013-03-04 09:55:00,66.4,17.4,25.37,SW,225,17.5,21.0,15,0.00,,---,0.00,VWS V14.01,2013-03-04 15:55:00,
2013-03-04 10:00:00,66.4,17.4,25.34,SW,225,13.2,13.2,15,0.00,,---,0.00,VWS V14.01,2013-03-04 16:00:00,
2013-03-04 10:05:00,66.7,17.6,25.34,SW,225,15.4,17.7,15,0.00,,---,0.00,VWS V14.01,2013-03-04 16:05:00,
2013-03-04 10:10:00,66.6,17.5,25.34,SW,225,18.6,18.6,15,0.00,,---,0.00,VWS V14.01,2013-03-04 16:10:00,
2013-03-04 10:15:00,66.6,17.5,25.34,SW,225,19.0,25.3,15,0.00,,---,0.00,VWS V14.01,2013-03-04 16:15:00,
2013-03-04 10:20:00,67.1,17.9,25.34,WSW,248,13.4,13.4,15,0.00,,---,0.00,VWS V14.01,2013-03-04 16:20:00,
2013-03-04 10:25:00,67.5,18.2,25.34,SW,225,16.6,16.6,15,0.00,,---,0.00,VWS V14.01,2013-03-04 16:25:00,
2013-03-04 10:30:00,67.8,18.5,25.34,WSW,248,17.5,18.1,15,0.00,,---,0.00,VWS V14.01,2013-03-04 16:30:00,
2013-03-04 10:35:00,68.5,19.1,25.34,SW,225,16.3,21.9,15,0.00,,---,0.00,VWS V14.01,2013-03-04 16:35:00,
2013-03-04 10:40:00,70.3,18.9,25.34,SW,225,17.2,22.2,14,0.00,,---,0.00,VWS V14.01,2013-03-04 16:40:00,
2013-03-04 10:45:00,69.4,19.8,25.34,WSW,248,21.3,26.0,15,0.00,,---,0.00,VWS V14.01,2013-03-04 16:45:00,
2013-03-04 10:50:00,70.5,19.1,25.34,SW,225,19.0,26.2,14,0.00,,---,0.00,VWS V14.01,2013-03-04 16:50:00,
2013-03-04 10:55:00,72.7,20.8,25.34,SW,225,17.7,18.1,14,0.00,,---,0.00,VWS V14.01,2013-03-04 16:55:00,
2013-03-04 11:00:00,71.2,19.6,25.34,SW,225,17.7,23.9,14,0.00,,---,0.00,VWS V14.01,2013-03-04 17:00:00,
2013-03-04 11:05:00,72.7,20.8,25.34,WSW,248,25.7,25.7,14,0.00,,---,0.00,VWS V14.01,2013-03-04 17:05:00,
2013-03-04 11:10:00,73.6,19.8,25.34,West,270,17.2,28.0,13,0.00,,---,0.00,VWS V14.01,2013-03-04 17:10:00,
2013-03-04 11:15:00,74.5,20.5,25.31,West,270,19.2,23.9,13,0.00,,---,0.00,VWS V14.01,2013-03-04 17:15:00,
2013-03-04 11:20:00,74.7,20.6,25.31,West,270,25.1,26.2,13,0.00,,---,0.00,VWS V14.01,2013-03-04 17:20:00,
2013-03-04 11:25:00,74.8,20.7,25.31,WSW,248,30.9,30.9,13,0.00,,---,0.00,VWS V14.01,2013-03-04 17:25:00,
2013-03-04 11:30:00,73.6,19.8,25.34,SW,225,19.9,28.6,13,0.00,,---,0.00,VWS V14.01,2013-03-04 17:30:00,
2013-03-04 11:35:00,73.9,20.0,25.34,WSW,248,22.6,22.6,13,0.00,,---,0.00,VWS V14.01,2013-03-04 17:35:00,
2013-03-04 11:40:00,73.0,21.1,25.34,WSW,248,25.5,35.8,14,0.00,,---,0.00,VWS V14.01,2013-03-04 17:40:00,
2013-03-04 11:45:00,73.6,19.8,25.31,WSW,248,30.2,30.2,13,0.00,,---,0.00,VWS V14.01,2013-03-04 17:45:00,
2013-03-04 11:50:00,73.2,21.2,25.31,WSW,248,28.6,29.8,14,0.00,,---,0.00,VWS V14.01,2013-03-04 17:50:00,
2013-03-04 11:55:00,73.8,19.9,25.31,West,270,22.6,25.3,13,0.00,,---,0.00,VWS V14.01,2013-03-04 17:55:00,
2013-03-04 12:00:00,73.9,20.0,25.31,SW,225,26.0,26.0,13,0.00,,---,0.00,VWS V14.01,2013-03-04 18:00:00,
2013-03-04 12:05:00,73.4,19.6,25.31,West,270,24.4,33.3,13,0.00,,---,0.00,VWS V14.01,2013-03-04 18:05:00,
2013-03-04 12:10:00,74.5,20.5,25.31,WSW,248,23.0,23.9,13,0.00,,---,0.00,VWS V14.01,2013-03-04 18:10:00,
2013-03-04 12:15:00,74.8,20.7,25.31,WSW,248,20.8,26.6,13,0.00,,---,0.00,VWS V14.01,2013-03-04 18:15:00,
2013-03-04 12:20:00,75.0,20.9,25.31,WSW,248,12.8,19.0,13,0.00,,---,0.00,VWS V14.01,2013-03-04 18:20:00,
2013-03-04 12:25:00,75.4,21.2,25.31,SW,225,23.9,31.1,13,0.00,,---,0.00,VWS V14.01,2013-03-04 18:25:00,
2013-03-04 12:29:00,76.6,22.1,25.31,WSW,248,28.6,28.6,13,0.00,,---,0.00,VWS V14.01,2013-03-04 18:29:00,
2013-03-04 12:30:00,76.8,22.3,25.31,WSW,248,24.6,28.6,13,0.00,,---,0.00,VWS V14.01,2013-03-04 18:30:00,
2013-03-04 12:35:00,76.1,21.7,25.31,WSW,248,32.0,32.0,13,0.00,,---,0.00,VWS V14.01,2013-03-04 18:35:00,
2013-03-04 12:40:00,75.2,21.0,25.31,SW,225,12.8,25.1,13,0.00,,---,0.00,VWS V14.01,2013-03-04 18:40:00,
2013-03-04 12:45:00,74.3,20.3,25.31,WSW,248,19.9,27.7,13,0.00,,---,0.00,VWS V14.01,2013-03-04 18:45:00,
2013-03-04 12:50:00,74.3,20.3,25.31,WSW,248,26.6,27.7,13,0.00,,---,0.00,VWS V14.01,2013-03-04 18:50:00,
2013-03-04 12:55:00,74.3,20.3,25.31,WSW,248,19.5,21.5,13,0.00,,---,0.00,VWS V14.01,2013-03-04 18:55:00,
2013-03-04 13:00:00,74.1,20.2,25.28,SW,225,19.0,26.6,13,0.00,,---,0.00,VWS V14.01,2013-03-04 19:00:00,
2013-03-04 13:05:00,73.8,19.9,25.28,WSW,248,28.0,28.0,13,0.00,,---,0.00,VWS V14.01,2013-03-04 19:05:00,
2013-03-04 13:10:00,74.1,20.2,25.28,WSW,248,28.0,28.0,13,0.00,,---,0.00,VWS V14.01,2013-03-04 19:10:00,
2013-03-04 13:15:00,73.9,20.0,25.28,WSW,248,17.5,26.4,13,0.00,,---,0.00,VWS V14.01,2013-03-04 19:15:00,
2013-03-04 13:20:00,74.3,20.3,25.28,SW,225,28.9,28.9,13,0.00,,---,0.00,VWS V14.01,2013-03-04 19:20:00,
2013-03-04 13:25:00,74.8,20.7,25.28,WSW,248,26.6,26.6,13,0.00,,---,0.00,VWS V14.01,2013-03-04 19:25:00,
2013-03-04 13:30:00,74.5,20.5,25.28,WSW,248,21.5,31.1,13,0.00,,---,0.00,VWS V14.01,2013-03-04 19:30:00,
2013-03-04 13:35:00,74.1,20.2,25.28,SW,225,27.1,29.3,13,0.00,,---,0.00,VWS V14.01,2013-03-04 19:35:00,
2013-03-04 13:40:00,73.4,19.6,25.28,WSW,248,32.7,32.7,13,0.00,,---,0.00,VWS V14.01,2013-03-04 19:40:00,
2013-03-04 13:45:00,73.8,19.9,25.25,SW,225,29.5,42.3,13,0.00,,---,0.00,VWS V14.01,2013-03-04 19:45:00,
2013-03-04 13:50:00,73.8,19.9,25.25,WSW,248,28.4,35.8,13,0.00,,---,0.00,VWS V14.01,2013-03-04 19:50:00,
2013-03-04 13:55:00,73.9,20.0,25.25,WSW,248,30.9,32.4,13,0.00,,---,0.00,VWS V14.01,2013-03-04 19:55:00,
2013-03-04 14:00:00,74.1,20.2,25.22,West,270,39.8,39.8,13,0.00,,---,0.00,VWS V14.01,2013-03-04 20:00:00,
2013-03-04 14:05:00,75.7,21.5,25.22,WSW,248,26.9,26.9,13,0.00,,---,0.00,VWS V14.01,2013-03-04 20:05:00,
2013-03-04 14:10:00,77.0,22.4,25.22,SW,225,15.7,26.4,13,0.00,,---,0.00,VWS V14.01,2013-03-04 20:10:00,
2013-03-04 14:15:00,76.8,22.3,25.22,WSW,248,23.3,32.2,13,0.00,,---,0.00,VWS V14.01,2013-03-04 20:15:00,
2013-03-04 14:20:00,77.4,22.7,25.22,SW,225,17.5,23.5,13,0.00,,---,0.00,VWS V14.01,2013-03-04 20:20:00,
2013-03-04 14:25:00,77.4,22.7,25.22,WSW,248,31.1,33.8,13,0.00,,---,0.00,VWS V14.01,2013-03-04 20:25:00,
2013-03-04 14:30:00,77.0,22.4,25.25,WSW,248,32.9,32.9,13,0.00,,---,0.00,VWS V14.01,2013-03-04 20:30:00,
2013-03-04 14:35:00,76.6,22.1,25.25,SW,225,29.3,29.3,13,0.00,,---,0.00,VWS V14.01,2013-03-04 20:35:00,
2013-03-04 14:40:00,77.5,22.9,25.25,SW,225,25.1,25.1,13,0.00,,---,0.00,VWS V14.01,2013-03-04 20:40:00,
2013-03-04 14:45:00,77.4,22.7,25.22,WSW,248,22.2,26.0,13,0.00,,---,0.00,VWS V14.01,2013-03-04 20:45:00,
2013-03-04 14:50:00,76.8,22.3,25.22,SW,225,27.7,32.0,13,0.00,,---,0.00,VWS V14.01,2013-03-04 20:50:00,
2013-03-04 14:55:00,76.5,22.0,25.22,WSW,248,28.9,31.1,13,0.00,,---,0.00,VWS V14.01,2013-03-04 20:55:00,
2013-03-04 15:00:00,77.2,22.6,25.22,SW,225,32.9,32.9,13,0.00,,---,0.00,VWS V14.01,2013-03-04 21:00:00,
2013-03-04 15:05:00,77.0,22.4,25.22,West,270,26.6,30.0,13,0.00,,---,0.00,VWS V14.01,2013-03-04 21:05:00,
2013-03-04 15:10:00,76.6,22.1,25.22,WSW,248,25.5,37.1,13,0.00,,---,0.00,VWS V14.01,2013-03-04 21:10:00,
2013-03-04 15:15:00,76.8,22.3,25.22,WSW,248,25.7,35.6,13,0.00,,---,0.00,VWS V14.01,2013-03-04 21:15:00,
2013-03-04 15:20:00,76.8,22.3,25.22,SW,225,23.0,23.0,13,0.00,,---,0.00,VWS V14.01,2013-03-04 21:20:00,
2013-03-04 15:25:00,77.5,22.9,25.22,SW,225,26.4,28.4,13,0.00,,---,0.00,VWS V14.01,2013-03-04 21:25:00,
2013-03-04 15:30:00,76.3,21.9,25.22,West,270,37.1,37.1,13,0.00,,---,0.00,VWS V14.01,2013-03-04 21:30:00,
2013-03-04 15:35:00,76.6,22.1,25.22,SW,225,30.0,37.8,13,0.00,,---,0.00,VWS V14.01,2013-03-04 21:35:00,
2013-03-04 15:40:00,76.6,22.1,25.22,WSW,248,19.9,24.4,13,0.00,,---,0.00,VWS V14.01,2013-03-04 21:40:00,
2013-03-04 15:45:00,76.5,22.0,25.22,WSW,248,21.9,21.9,13,0.00,,---,0.00,VWS V14.01,2013-03-04 21:45:00,
2013-03-04 15:50:00,75.7,21.5,25.22,WSW,248,23.3,26.0,13,0.00,,---,0.00,VWS V14.01,2013-03-04 21:50:00,
2013-03-04 15:55:00,75.7,21.5,25.22,WSW,248,14.5,22.4,13,0.00,,---,0.00,VWS V14.01,2013-03-04 21:55:00,
2013-03-04 16:00:00,75.7,21.5,25.22,SW,225,18.1,18.1,13,0.00,,---,0.00,VWS V14.01,2013-03-04 22:00:00,
2013-03-04 16:05:00,76.5,22.0,25.22,SW,225,15.2,15.2,13,0.00,,---,0.00,VWS V14.01,2013-03-04 22:05:00,
2013-03-04 16:10:00,75.9,21.6,25.22,SW,225,17.5,17.5,13,0.00,,---,0.00,VWS V14.01,2013-03-04 22:10:00,
2013-03-04 16:15:00,76.3,21.9,25.22,SW,225,19.5,19.5,13,0.00,,---,0.00,VWS V14.01,2013-03-04 22:15:00,
2013-03-04 16:20:00,75.6,21.3,25.22,WSW,248,17.5,19.9,13,0.00,,---,0.00,VWS V14.01,2013-03-04 22:20:00,
2013-03-04 16:25:00,75.6,21.3,25.22,SW,225,21.9,21.9,13,0.00,,---,0.00,VWS V14.01,2013-03-04 22:25:00,
2013-03-04 16:30:00,76.1,21.7,25.22,SW,225,15.2,18.1,13,0.00,,---,0.00,VWS V14.01,2013-03-04 22:30:00,
2013-03-04 16:35:00,75.4,21.2,25.22,SW,225,22.2,22.2,13,0.00,,---,0.00,VWS V14.01,2013-03-04 22:35:00,
2013-03-04 16:40:00,75.7,21.5,25.22,WSW,248,12.8,14.1,13,0.00,,---,0.00,VWS V14.01,2013-03-04 22:40:00,
2013-03-04 16:45:00,77.7,23.0,25.22,SW,225,22.2,22.2,13,0.00,,---,0.00,VWS V14.01,2013-03-04 22:45:00,
2013-03-04 16:50:00,77.9,23.1,25.22,ESE,112,6.0,8.5,13,0.00,,---,0.00,VWS V14.01,2013-03-04 22:50:00,
2013-03-04 16:55:00,76.3,21.9,25.22,SSE,158,8.5,8.5,13,0.00,,---,0.00,VWS V14.01,2013-03-04 22:55:00,
2013-03-04 17:00:00,75.4,21.2,25.22,SSW,202,12.1,15.7,13,0.00,,---,0.00,VWS V14.01,2013-03-04 23:00:00,
2013-03-04 17:05:00,75.7,21.5,25.22,SSW,202,8.1,10.7,13,0.00,,---,0.00,VWS V14.01,2013-03-04 23:05:00,
2013-03-04 17:10:00,76.8,22.3,25.22,South,180,6.0,8.1,13,0.00,,---,0.00,VWS V14.01,2013-03-04 23:10:00,
2013-03-04 17:15:00,75.7,21.5,25.22,SSW,202,8.5,8.5,13,0.00,,---,0.00,VWS V14.01,2013-03-04 23:15:00,
2013-03-04 17:20:00,76.3,21.9,25.22,South,180,8.7,8.7,13,0.00,,---,0.00,VWS V14.01,2013-03-04 23:20:00,
2013-03-04 17:25:00,75.9,21.6,25.22,SSE,158,10.1,10.1,13,0.00,,---,0.00,VWS V14.01,2013-03-04 23:25:00,
2013-03-04 17:30:00,75.4,21.2,25.22,South,180,5.4,7.8,13,0.00,,---,0.00,VWS V14.01,2013-03-04 23:30:00,
2013-03-04 17:35:00,73.9,20.0,25.22,SSW,202,10.1,11.0,13,0.00,,---,0.00,VWS V14.01,2013-03-04 23:35:00,
2013-03-04 17:40:00,73.6,19.8,25.22,South,180,4.0,7.6,13,0.00,,---,0.00,VWS V14.01,2013-03-04 23:40:00,
2013-03-04 17:45:00,75.0,20.9,25.22,SSW,202,5.6,6.0,13,0.00,,---,0.00,VWS V14.01,2013-03-04 23:45:00,
2013-03-04 17:50:00,75.2,21.0,25.22,SSW,202,11.0,12.5,13,0.00,,---,0.00,VWS V14.01,2013-03-04 23:50:00,
2013-03-04 17:55:00,75.0,20.9,25.22,South,180,9.8,9.8,13,0.00,,---,0.00,VWS V14.01,2013-03-04 23:55:00,
2013-03-04 18:00:00,74.7,20.6,25.22,SSW,202,12.8,12.8,13,0.00,,---,0.00,VWS V14.01,2013-03-05 00:00:00,
2013-03-04 18:05:00,74.5,20.5,25.22,SSE,158,8.5,10.3,13,0.00,,---,0.00,VWS V14.01,2013-03-05 00:05:00,
2013-03-04 18:10:00,73.8,19.9,25.22,SSW,202,9.2,13.2,13,0.00,,---,0.00,VWS V14.01,2013-03-05 00:10:00,
2013-03-04 18:15:00,73.2,21.2,25.22,South,180,9.8,10.3,14,0.00,,---,0.00,VWS V14.01,2013-03-05 00:15:00,
2013-03-04 18:20:00,72.9,20.9,25.22,SE,135,8.7,8.7,14,0.00,,---,0.00,VWS V14.01,2013-03-05 00:20:00,
2013-03-04 18:25:00,72.3,20.5,25.22,South,180,12.3,12.3,14,0.00,,---,0.00,VWS V14.01,2013-03-05 00:25:00,
2013-03-04 18:30:00,71.8,20.1,25.22,South,180,4.0,4.0,14,0.00,,---,0.00,VWS V14.01,2013-03-05 00:30:00,
2013-03-04 18:35:00,70.2,18.8,25.22,SSW,202,4.9,4.9,14,0.00,,---,0.00,VWS V14.01,2013-03-05 00:35:00,
2013-03-04 18:40:00,69.4,19.8,25.22,SSE,158,8.5,8.5,15,0.00,,---,0.00,VWS V14.01,2013-03-05 00:40:00,
2013-03-04 18:45:00,69.1,19.5,25.25,South,180,7.6,9.0,15,0.00,,---,0.00,VWS V14.01,2013-03-05 00:45:00,
2013-03-04 18:50:00,68.0,18.7,25.25,SSW,202,5.6,5.6,15,0.00,,---,0.00,VWS V14.01,2013-03-05 00:50:00,
2013-03-04 18:55:00,67.6,18.4,25.25,SW,225,8.7,8.7,15,0.00,,---,0.00,VWS V14.01,2013-03-05 00:55:00,
2013-03-04 19:00:00,67.1,17.9,25.25,SSW,202,6.3,6.3,15,0.00,,---,0.00,VWS V14.01,2013-03-05 01:00:00,
2013-03-04 19:05:00,66.7,17.6,25.25,South,180,5.6,5.6,15,0.00,,---,0.00,VWS V14.01,2013-03-05 01:05:00,
2013-03-04 19:10:00,66.7,17.6,25.25,SSW,202,5.4,5.8,15,0.00,,---,0.00,VWS V14.01,2013-03-05 01:10:00,
2013-03-04 19:15:00,66.6,17.5,25.25,SSW,202,6.3,6.3,15,0.00,,---,0.00,VWS V14.01,2013-03-05 01:15:00,
2013-03-04 19:20:00,66.4,17.4,25.25,SSW,202,5.8,6.3,15,0.00,,---,0.00,VWS V14.01,2013-03-05 01:20:00,
2013-03-04 19:25:00,66.4,17.4,25.25,SSW,202,5.4,5.4,15,0.00,,---,0.00,VWS V14.01,2013-03-05 01:25:00,
2013-03-04 19:30:00,66.0,17.1,25.25,SSW,202,12.5,12.5,15,0.00,,---,0.00,VWS V14.01,2013-03-05 01:30:00,
2013-03-04 19:35:00,66.4,17.4,25.25,SSE,158,7.8,7.8,15,0.00,,---,0.00,VWS V14.01,2013-03-05 01:35:00,
2013-03-04 19:40:00,66.6,17.5,25.25,SSW,202,6.3,6.3,15,0.00,,---,0.00,VWS V14.01,2013-03-05 01:40:00,
2013-03-04 19:45:00,66.7,17.6,25.25,South,180,6.5,6.5,15,0.00,,---,0.00,VWS V14.01,2013-03-05 01:45:00,
2013-03-04 19:50:00,66.6,17.5,25.25,South,180,6.3,6.3,15,0.00,,---,0.00,VWS V14.01,2013-03-05 01:50:00,
2013-03-04 19:55:00,66.4,17.4,25.25,South,180,6.5,7.6,15,0.00,,---,0.00,VWS V14.01,2013-03-05 01:55:00,
2013-03-04 20:00:00,66.0,17.1,25.25,South,180,7.2,8.1,15,0.00,,---,0.00,VWS V14.01,2013-03-05 02:00:00,
2013-03-04 20:05:00,65.8,16.9,25.25,South,180,6.5,7.8,15,0.00,,---,0.00,VWS V14.01,2013-03-05 02:05:00,
2013-03-04 20:10:00,66.0,17.1,25.25,SSW,202,9.2,9.2,15,0.00,,---,0.00,VWS V14.01,2013-03-05 02:10:00,
2013-03-04 20:15:00,66.4,17.4,25.25,SSW,202,8.7,8.7,15,0.00,,---,0.00,VWS V14.01,2013-03-05 02:15:00,
2013-03-04 20:20:00,66.4,17.4,25.25,South,180,12.1,12.1,15,0.00,,---,0.00,VWS V14.01,2013-03-05 02:20:00,
2013-03-04 20:25:00,67.6,18.4,25.25,SSW,202,10.7,10.7,15,0.00,,---,0.00,VWS V14.01,2013-03-05 02:25:00,
2013-03-04 20:30:00,66.9,17.8,25.25,SSW,202,10.3,10.3,15,0.00,,---,0.00,VWS V14.01,2013-03-05 02:30:00,
2013-03-04 20:35:00,66.6,17.5,25.25,SW,225,12.3,12.3,15,0.00,,---,0.00,VWS V14.01,2013-03-05 02:35:00,
2013-03-04 20:40:00,67.1,17.9,25.25,SW,225,9.8,14.5,15,0.00,,---,0.00,VWS V14.01,2013-03-05 02:40:00,
2013-03-04 20:45:00,67.1,17.9,25.28,SW,225,8.5,12.8,15,0.00,,---,0.00,VWS V14.01,2013-03-05 02:45:00,
2013-03-04 20:50:00,66.9,17.8,25.28,SW,225,8.1,12.1,15,0.00,,---,0.00,VWS V14.01,2013-03-05 02:50:00,
2013-03-04 20:55:00,66.7,17.6,25.28,SW,225,8.1,9.6,15,0.00,,---,0.00,VWS V14.01,2013-03-05 02:55:00,
2013-03-04 21:00:00,66.6,17.5,25.31,WSW,248,8.7,9.8,15,0.00,,---,0.00,VWS V14.01,2013-03-05 03:00:00,
2013-03-04 21:05:00,66.9,17.8,25.31,SW,225,10.7,13.2,15,0.00,,---,0.00,VWS V14.01,2013-03-05 03:05:00,
2013-03-04 21:10:00,67.8,18.5,25.31,WSW,248,14.3,14.3,15,0.00,,---,0.00,VWS V14.01,2013-03-05 03:10:00,
2013-03-04 21:15:00,67.6,18.4,25.31,WSW,248,12.5,12.5,15,0.00,,---,0.00,VWS V14.01,2013-03-05 03:15:00,
2013-03-04 21:20:00,67.8,18.5,25.31,WSW,248,13.9,13.9,15,0.00,,---,0.00,VWS V14.01,2013-03-05 03:20:00,
2013-03-04 21:25:00,67.3,18.1,25.31,West,270,10.3,11.9,15,0.00,,---,0.00,VWS V14.01,2013-03-05 03:25:00,
2013-03-04 21:30:00,66.9,17.8,25.31,WSW,248,7.4,8.7,15,0.00,,---,0.00,VWS V14.01,2013-03-05 03:30:00,
2013-03-04 21:35:00,66.6,17.5,25.31,WSW,248,6.0,8.5,15,0.00,,---,0.00,VWS V14.01,2013-03-05 03:35:00,
2013-03-04 21:40:00,66.2,17.2,25.31,WSW,248,11.0,11.0,15,0.00,,---,0.00,VWS V14.01,2013-03-05 03:40:00,
2013-03-04 21:45:00,67.3,18.1,25.31,West,270,15.2,16.8,15,0.00,,---,0.00,VWS V14.01,2013-03-05 03:45:00,
2013-03-04 21:50:00,68.0,18.7,25.31,West,270,19.7,19.7,15,0.00,,---,0.00,VWS V14.01,2013-03-05 03:50:00,
2013-03-04 21:55:00,68.2,18.8,25.31,West,270,24.2,24.2,15,0.00,,---,0.00,VWS V14.01,2013-03-05 03:55:00,
2013-03-04 22:00:00,67.8,18.5,25.31,West,270,13.2,14.1,15,0.00,,---,0.00,VWS V14.01,2013-03-05 04:00:00,
2013-03-04 22:05:00,68.0,18.7,25.31,West,270,10.5,12.8,15,0.00,,---,0.00,VWS V14.01,2013-03-05 04:05:00,
2013-03-04 22:10:00,67.6,18.4,25.31,West,270,14.8,14.8,15,0.00,,---,0.00,VWS V14.01,2013-03-05 04:10:00,
2013-03-04 22:15:00,67.6,18.4,25.34,West,270,12.8,13.4,15,0.00,,---,0.00,VWS V14.01,2013-03-05 04:15:00,
2013-03-04 22:20:00,67.6,18.4,25.34,West,270,11.0,14.3,15,0.00,,---,0.00,VWS V14.01,2013-03-05 04:20:00,
2013-03-04 22:25:00,67.6,18.4,25.34,West,270,12.8,13.0,15,0.00,,---,0.00,VWS V14.01,2013-03-05 04:25:00,
2013-03-04 22:30:00,67.6,18.4,25.34,WSW,248,15.4,15.4,15,0.00,,---,0.00,VWS V14.01,2013-03-05 04:30:00,
2013-03-04 22:35:00,67.3,18.1,25.34,West,270,12.5,17.0,15,0.00,,---,0.00,VWS V14.01,2013-03-05 04:35:00,
2013-03-04 22:40:00,67.6,18.4,25.34,West,270,17.2,17.7,15,0.00,,---,0.00,VWS V14.01,2013-03-05 04:40:00,
2013-03-04 22:45:00,67.1,17.9,25.34,West,270,12.8,14.8,15,0.00,,---,0.00,VWS V14.01,2013-03-05 04:45:00,
2013-03-04 22:50:00,66.9,17.8,25.34,West,270,13.2,15.4,15,0.00,,---,0.00,VWS V14.01,2013-03-05 04:50:00,
2013-03-04 22:55:00,66.7,17.6,25.34,West,270,11.2,12.8,15,0.00,,---,0.00,VWS V14.01,2013-03-05 04:55:00,
2013-03-04 23:00:00,66.2,17.2,25.37,West,270,12.3,12.3,15,0.00,,---,0.00,VWS V14.01,2013-03-05 05:00:00,
2013-03-04 23:05:00,66.2,17.2,25.37,West,270,10.7,11.0,15,0.00,,---,0.00,VWS V14.01,2013-03-05 05:05:00,
2013-03-04 23:10:00,65.8,16.9,25.37,West,270,9.8,11.0,15,0.00,,---,0.00,VWS V14.01,2013-03-05 05:10:00,
2013-03-04 23:15:00,65.8,16.9,25.37,West,270,11.0,11.0,15,0.00,,---,0.00,VWS V14.01,2013-03-05 05:15:00,
2013-03-04 23:20:00,65.5,16.6,25.37,West,270,12.1,12.1,15,0.00,,---,0.00,VWS V14.01,2013-03-05 05:20:00,
2013-03-04 23:25:00,64.9,16.2,25.37,West,270,8.7,11.0,15,0.00,,---,0.00,VWS V14.01,2013-03-05 05:25:00,
2013-03-04 23:30:00,65.3,16.5,25.34,West,270,8.5,13.2,15,0.00,,---,0.00,VWS V14.01,2013-03-05 05:30:00,
2013-03-04 23:35:00,65.8,16.9,25.34,West,270,17.0,17.0,15,0.00,,---,0.00,VWS V14.01,2013-03-05 05:35:00,
2013-03-04 23:40:00,65.3,16.5,25.34,WNW,292,10.1,13.2,15,0.00,,---,0.00,VWS V14.01,2013-03-05 05:40:00,
2013-03-04 23:45:00,64.8,16.1,25.37,NW,315,9.8,10.5,15,0.00,,---,0.00,VWS V14.01,2013-03-05 05:45:00,
2013-03-04 23:50:00,65.1,16.4,25.37,NW,315,17.2,17.2,15,0.00,,---,0.00,VWS V14.01,2013-03-05 05:50:00,
2013-03-04 23:55:00,64.9,16.2,25.37,WNW,292,15.4,15.4,15,0.00,,---,0.00,VWS V14.01,2013-03-05 05:55:00,